Regional Weather Roundup
Issued by NWS

Home | Current Version | Previous Version | Graphics & Text | Print | Product List | Glossary On
Versions: 1 2 3 4 5 6 7 8 9 10 11 12 13 14 15 16 17 18 19 20 21 22 23 24 25 26 27 28 29 30 31 32 33 34 35 36 37 38 39 40 41 42 43 44 45 46 47 48 49 50
000
ASUS43 KMKX 010700
RWRWI

WISCONSIN REGIONAL WEATHER ROUNDUP
NATIONAL WEATHER SERVICE MILWAUKEE/SULLIVAN WI
200 AM CDT SAT OCT 01 2016

NOTE: "FAIR" INDICATES FEW OR NO CLOUDS BELOW 12,000 FEET WITH NO
SIGNIFICANT WEATHER AND/OR OBSTRUCTIONS TO VISIBILITY.

WIZ001-002-006>008-014>016-023>028-010800-
NORTHWEST WISCONSIN

CITY           SKY/WX    TMP DP  RH WIND       PRES   REMARKS
SUPERIOR ARPT  CLOUDY    51  51  99 E7        30.27S
ASHLAND        FOG       53  53 100 NE7       30.26S VSB 3/4
HAYWARD        CLEAR     48  47  96 CALM      30.24S
SIREN          MOCLDY    51  50  97 CALM      30.24S
CUMBERLAND     CLEAR     50  48  93 NE5       30.23S
RICE LAKE      CLEAR     52  50  93 CALM      30.23S
CHETEK         NOT AVBL
LADYSMITH      MOCLDY    55  52  90 N3        30.23S
EAU CLAIRE     NOT AVBL
MENOMONIE      CLOUDY    56  54  90 N6        30.20S
NEW RICHMOND   CLEAR     50  50  99 CALM      30.21F
OSCEOLA        CLEAR     54  54 100 CALM      30.24S
$$

WIZ003>005-009-010-017-018-010800-
NORTH CENTRAL WISCONSIN

CITY           SKY/WX    TMP DP  RH WIND       PRES   REMARKS
MANITOWISH WTR NOT AVBL
ARBOR VITAE    CLEAR     55  51  86 CALM      30.23F
WOODRUFF       CLEAR     55  51  86 CALM      30.23F
RHINELANDER    CLEAR     53  50  89 E6        30.23S
EAGLE RIVER    CLEAR     51  46  83 CALM      30.23S
LAND O LAKES   PTCLDY    48  47  97 CALM      30.26S
PHILLIPS       CLEAR     49  49 100 NE3       30.22F
TOMAHAWK       PTCLDY    53  48  86 NE3       30.23S
MEDFORD        CLEAR     51  51 100 NE6       30.20S
MERRILL        PTCLDY    54  51  92 NE7       30.21F
$$

WIZ029-030-035-036-043>047-010800-
CENTRAL WISCONSIN

CITY           SKY/WX    TMP DP  RH WIND       PRES   REMARKS
WAUSAU         CLOUDY    56  51  84 N5        30.17F
MOSINEE        CLOUDY    55  52  88 N8        30.19S
MARSHFIELD     CLOUDY    59  51  75 NE6       30.17S
STEVENS POINT  CLOUDY    57  52  83 NE9       30.17S
WAUPACA        CLOUDY    60  59  94 N5        30.15F
WAUTOMA        LGT RAIN  58  57  97 N6        30.14F FOG
WISC RAPIDS    CLOUDY    60  54  80 E7        30.16F
CAMP DOUGLAS   CLOUDY    57  55  94 NE5       30.14S
$$

WIZ011>013-019>022-031-037>040-048>050-010800-
NORTHEAST WISCONSIN

CITY           SKY/WX    TMP DP  RH WIND       PRES   REMARKS
ANTIGO         CLOUDY    55  52  90 E10       30.20F
SHAWANO        CLOUDY    61  55  81 NE8       30.17S
OCONTO         NOT AVBL
STURGEON BAY   LGT RAIN  59  56  89 NE6       30.17F
GREEN BAY      LGT RAIN  61  59  93 NE10      30.15S
MANITOWOC      NOT AVBL
APPLETON       CLOUDY    59  59 100 E10       30.13S FOG
CLINTONVILLE   CLOUDY    59  54  82 NE7       30.16S
OSHKOSH        CLOUDY    60  58  92 NE15      30.12S
$$

WIZ032>034-041-042-053>061-010800-
SOUTHWEST WISCONSIN

CITY           SKY/WX    TMP DP  RH WIND       PRES   REMARKS
LA CROSSE      CLOUDY    62  56  80 VRB6      30.15S
SPARTA         CLOUDY    56  56 100 CALM      30.16S
VIROQUA        CLOUDY    56  56 100 NE5       30.15S
BOSCOBEL       CLOUDY    60  58  92 CALM      30.12F
PRAIRIE DU CHI CLOUDY    60  56  88 CALM      30.12F
PLATTEVILLE    CLOUDY    59  59 100 N7        30.11F
$$

WIZ056-057-062-063-064-067-068-010800-
SOUTH CENTRAL WISCONSIN

CITY           SKY/WX    TMP DP  RH WIND       PRES   REMARKS
REEDSBURG      NOT AVBL
BARABOO/DELLS  CLOUDY    57  56  97 NE6       30.12S
LONE ROCK      NOT AVBL
MINERAL POINT  CLOUDY    59  59 100 N6        30.11F
MADISON        LGT RAIN  59  58  96 N7        30.10S
MIDDLETON      CLOUDY    60  60 100 NE6       30.11S
WATERTOWN      DRIZZLE   59  59 100 NE3       30.09S
MONROE         CLOUDY    57  57 100 N8        30.09F
JANESVILLE     RAIN      61  59  94 N3        30.07F
$$

WIZ051-052-058>065-066-070>072-010800-
SOUTHEAST WISCONSIN

CITY           SKY/WX    TMP DP  RH WIND       PRES   REMARKS
MILWAUKEE      CLOUDY    62  59  90 E8        30.07F
WAUKESHA       LGT RAIN  57  55  94 NE7       30.09F
MILWAUKEE/TIMM RAIN      59  55  88 E6        30.09S
RACINE         CLOUDY    62  58  86 E9        30.08S
BURLINGTON     DRIZZLE   58  58  98 CALM      30.07S
KENOSHA        MOCLDY    60  57  89 E7        30.07S
FOND DU LAC    LGT RAIN  60  58  92 NE8       30.12S
SHEBOYGAN      LGT RAIN  59  57  93 NE12      30.12S
WEST BEND      RAIN      68  68 100 NE8       30.10S
JUNEAU         LGT RAIN  58  58  97 N5        30.12S
$$

LSZ147-162-010800-
LAKE SUPERIOR

STATION/POSITION TIME  TEMP    WIND        PRES    WAVE
                       AIR SEA DIR/SP/G            HT/PER
                 (UTC) (F)     (DEG/KT/KT) (MB)    (FT/S)
W MID LAKE BUOY  0550   56 55   60/  8/ 10 1024.8F   2/ 5
DEVILS ISLAND    0600   53      40/ 11/ 11 1025.3F
SAXON HARBOR     0640   54     190/  2/  2 1024.4S
$$

LMZ867-665-643>646-010800-
LAKE MICHIGAN

STATION/POSITION TIME  TEMP    WIND        PRES    WAVE
                       AIR SEA DIR/SP/G            HT/PER
                 (UTC) (F)     (DEG/KT/KT) (MB)    (FT/S)
CHAMBERS ISLAND  0600   63      50/  7/ 11 1021.7F
S GREEN BAY BUOY 0630   62 62   70/ 12/ 16 1021.1F
N MID LAKE BUOY  0550   62 64  100/ 17/ 21 1021.7F   5/ 5
NORTHPORT PIER   0600   63      90/ 13/ 16 1022.4F
SISTER BAY       0608   61     130/  7/ 11   N/A
KEWAUNEE LAKESHO 0600   60      60/  6/ 14 1020.5F
SHEBOYGAN LAKESH 0600   60      70/ 17/ 19 1019.4F
PORT WASHINGTON  0640   60      50/  9/ 13 1019.6F
ATWATER BUOY     0600   59 55   90/  6/ 10 1018.7S
MILWAUKEE LAKESH 0610   58      50/  9/ 10   N/A
S MID LAKE BUOY  0550   63 67  100/ 16/ 19 1017.4F   4/ 6
KENOSHA   LAKESH 0600   63     110/ 17/ 19 1017.6F
$$

TC  - TEMPERATURE IN CELSIUS
VSB - VISIBILITY IN STATUTE MILES
WCI - WIND CHILL INDEX
HX  - HEAT INDEX





USA.gov is the U.S. government's official web portal to all federal, state and local government web resources and services.